Wind_Speed
26 27 29 30 32 33 33 32 32 32 32 33 33 34 34 34 34 35 35 37 38 39 41 42 43 44 45 44 44 43 43 43 43 43 43 43 43 43 42 42 41 41 41 41 41 41 41 42 42 43 43 44 44 44 45 45 46 46 46 46 47 48 48 49 49 48 45 43 43 43 43 45 46 46 47 46 44 44 44 43 41 40 39 37 37
26 27 28 29 30 31 31 30 30 31 31 32 33 33 33 33 34 34 35 36 38 39 41 42 43 44 44 43 43 43 43 43 43 43 43 43 43 42 42 42 41 41 42 42 42 43 43 44 44 45 45 46 46 46 47 48 48 48 49 49 49 49 50 50 50 50 48 45 45 45 45 45 46 47 48 48 46 46 46 44 42 42 42 40 38
26 27 28 29 30 30 29 29 29 29 30 31 32 32 32 33 33 34 35 36 38 39 41 42 43 43 43 43 43 43 43 43 43 43 43 43 42 42 42 42 42 42 43 44 44 44 45 45 46 46 47 47 47 48 48 49 49 50 50 51 51 51 52 53 53 52 51 48 46 47 48 47 47 48 49 50 49 48 48 46 44 43 42 42 41
27 28 29 29 29 28 28 28 28 28 29 30 31 31 32 33 33 34 36 37 39 40 41 41 41 41 42 42 42 42 42 42 43 43 43 43 42 43 43 43 43 44 44 44 45 45 45 46 46 47 47 48 48 49 49 50 50 51 51 52 52 53 53 54 55 55 54 51 49 48 49 49 49 49 50 51 51 50 50 49 48 46 44 43 43
27 28 28 28 27 27 26 27 27 28 29 30 30 31 32 33 34 35 36 37 38 39 39 40 40 41 41 42 42 42 42 43 43 43 43 43 43 44 44 44 44 44 45 45 45 45 46 46 46 47 47 48 49 49 50 51 51 52 53 53 54 54 54 55 56 57 57 55 53 51 51 51 51 51 52 53 53 53 52 51 50 49 48 46 45
27 27 27 27 27 27 26 27 27 28 29 30 30 31 32 33 34 35 36 36 37 38 38 39 40 40 41 41 42 42 43 43 43 43 43 44 44 44 44 45 45 45 45 46 46 46 46 47 47 47 48 48 49 50 50 51 52 53 54 54 55 55 56 56 57 58 58 58 56 54 53 54 53 52 53 54 55 54 54 53 52 51 50 49 47
27 27 27 26 27 27 27 28 28 28 29 30 30 31 32 33 34 34 35 36 36 37 38 38 39 40 40 41 42 42 43 43 43 44 44 44 44 44 44 45 45 46 46 46 46 46 47 47 48 48 49 50 50 51 52 52 53 54 54 55 56 56 57 57 58 60 60 60 59 57 56 56 56 55 54 55 56 56 56 55 54 52 51 51 49
26 26 26 26 27 27 28 28 29 29 29 30 30 31 32 32 33 34 34 35 35 36 37 38 39 39 40 41 42 42 43 43 43 44 44 44 44 44 45 45 45 46 46 46 46 47 47 48 48 49 49 50 51 52 53 54 54 55 55 56 57 57 58 59 59 60 61 62 62 61 59 58 58 58 57 57 57 57 57 57 56 55 54 52 51
26 27 27 28 28 29 29 30 29 29 29 29 30 30 31 32 32 33 33 34 35 36 37 38 39 40 41 41 42 42 42 43 43 43 43 43 44 44 45 45 45 45 45 46 46 47 47 47 48 48 49 49 50 51 52 54 55 56 57 58 58 59 60 60 61 61 62 63 63 63 63 61 60 61 60 59 59 59 58 59 58 57 56 53 51
27 27 28 29 30 31 31 30 30 30 29 29 30 30 30 31 31 32 33 34 35 36 37 38 39 40 41 41 42 42 42 42 42 42 43 43 44 44 44 44 45 45 45 45 46 46 47 47 48 48 48 49 49 50 51 53 54 56 58 59 60 61 61 62 62 63 63 64 64 64 64 63 63 63 63 61 61 61 60 60 60 59 58 55 52
28 28 29 29 30 30 30 30 30 30 29 29 29 29 30 30 31 32 33 34 35 37 38 39 40 40 41 41 41 42 42 42 42 42 43 44 44 44 44 44 44 44 45 45 46 46 46 47 47 47 48 48 49 50 51 52 54 56 58 60 61 63 64 64 64 65 65 65 65 66 66 65 64 65 66 64 63 63 62 61 61 61 60 58 55
28 28 28 28 29 29 29 29 29 29 29 28 28 28 29 30 31 32 33 35 36 37 38 39 40 40 41 41 41 41 41 41 42 42 43 43 43 43 43 43 43 44 44 45 45 45 45 45 46 46 47 48 48 50 51 53 54 56 58 60 62 63 65 66 66 67 67 67 67 67 67 67 66 65 67 68 66 64 64 63 62 61 61 61 58
28 28 28 28 28 28 28 28 28 27 27 27 27 28 29 30 32 33 34 35 37 38 38 39 40 40 40 40 40 40 41 41 42 42 42 42 42 42 43 43 43 44 44 45 45 45 45 45 46 47 48 49 50 51 53 54 56 58 59 61 63 64 65 66 67 68 69 69 69 69 68 68 68 66 66 69 69 66 65 65 64 63 62 61 60
28 28 28 29 29 28 27 26 26 26 26 26 27 29 30 31 32 34 35 36 37 38 38 39 39 39 39 39 39 39 40 41 42 42 41 41 42 42 42 43 44 44 45 45 44 45 45 46 47 48 49 50 52 53 55 57 59 60 61 63 64 66 67 67 67 68 69 70 70 69 69 69 69 67 66 68 70 69 66 65 65 65 64 62 61
28 28 29 29 28 27 26 25 25 25 26 27 28 29 31 32 33 35 36 36 37 37 38 38 38 38 38 38 38 39 40 40 40 40 40 41 41 42 43 44 44 45 44 44 44 44 45 46 47 49 50 52 54 56 58 59 61 63 65 66 67 67 68 67 67 66 67 68 69 69 69 69 69 68 67 67 69 70 68 66 66 66 65 63 61
28 28 28 27 26 25 25 24 25 25 26 28 29 31 32 33 34 35 35 36 36 37 37 37 37 37 37 37 38 39 39 39 39 39 39 40 41 42 44 44 44 44 43 43 44 45 46 47 48 50 52 54 55 57 59 61 63 65 66 66 66 65 63 62 61 61 61 62 64 66 67 68 68 68 67 66 68 70 69 67 66 66 67 65 62
27 27 27 26 25 25 24 24 25 26 27 29 30 32 32 33 34 34 35 35 36 36 36 36 36 36 36 37 38 38 37 37 37 38 39 40 41 42 43 43 42 42 42 43 44 45 46 47 49 50 52 54 56 58 60 62 64 64 62 61 59 57 55 53 52 53 54 54 56 59 61 63 65 67 66 65 66 68 69 67 66 67 67 65 63
26 26 26 25 25 24 24 25 26 27 28 30 31 31 32 33 33 34 34 35 35 35 35 35 35 36 36 37 37 36 35 35 36 37 38 40 41 42 42 41 40 41 42 43 45 45 46 47 49 51 53 55 57 59 62 63 62 60 56 53 51 49 47 46 45 45 46 47 48 50 52 55 59 62 63 63 64 66 68 66 66 67 66 65 63
26 26 26 25 24 24 25 26 27 28 29 30 30 31 31 32 32 33 34 34 34 34 34 34 35 35 36 35 35 34 34 34 35 37 38 40 41 41 40 39 40 41 43 44 45 45 46 47 49 51 53 55 58 61 63 62 59 55 50 46 44 42 39 38 38 37 37 37 38 41 43 46 49 53 57 60 61 63 66 65 64 65 65 65 64
26 26 25 24 24 24 25 26 28 29 29 30 30 30 31 31 32 33 33 33 33 33 34 34 34 35 34 34 33 33 33 34 35 37 39 40 40 39 38 38 40 42 43 44 45 45 46 47 49 52 53 55 59 62 62 60 57 51 45 42 39 35 32 30 31 31 29 28 28 31 34 37 40 42 47 53 57 60 63 63 62 64 64 64 64
25 25 25 24 24 25 26 27 28 29 29 29 29 30 31 31 32 32 32 32 32 33 33 33 33 33 32 31 31 32 32 34 35 37 38 39 38 37 37 38 40 42 44 45 45 45 46 47 49 52 54 56 60 62 61 59 54 46 40 38 34 29 27 27 27 26 25 23 22 23 25 28 31 34 37 43 49 55 59 61 60 61 63 63 63
25 25 25 25 25 26 27 28 28 28 28 29 29 30 31 31 31 31 31 31 32 32 32 32 32 31 30 30 30 31 32 33 35 37 38 38 37 36 37 39 41 43 44 44 45 45 46 47 49 52 54 57 61 62 60 57 51 42 37 33 29 25 26 27 26 24 23 22 21 20 19 20 23 26 29 33 40 49 55 58 58 59 60 61 62
25 25 25 26 26 27 27 28 28 28 28 29 29 30 30 30 30 30 30 30 31 31 31 31 30 29 29 29 29 30 32 33 35 37 37 36 36 35 37 39 41 42 43 44 44 44 45 47 49 52 54 58 61 61 59 56 48 40 34 31 25 24 27 29 27 26 26 23 20 17 15 14 16 18 21 24 31 41 50 54 54 55 58 59 60
26 26 26 26 27 27 27 27 27 28 28 29 29 29 28 28 29 29 29 29 30 30 29 29 28 27 27 28 29 30 31 33 35 36 36 35 35 35 37 39 41 42 43 43 43 44 45 46 49 52 54 57 60 59 57 54 46 37 32 29 25 26 30 31 29 30 29 23 17 15 13 12 12 11 13 16 21 32 42 49 51 52 54 57 57
26 26 27 27 27 27 27 27 27 28 28 28 27 27 27 27 28 28 28 29 29 28 28 27 26 26 26 27 29 30 31 33 34 35 35 34 34 35 36 38 40 41 42 42 42 43 44 46 48 51 53 56 58 58 56 52 44 35 29 27 26 27 30 29 28 32 31 21 15 13 12 11 10 7 8 10 14 21 29 38 45 48 51 54 55
27 28 27 27 26 26 26 26 27 27 27 26 26 26 26 27 27 27 28 28 27 26 26 25 25 25 26 27 28 29 31 32 33 33 33 32 32 33 35 37 39 40 41 41 41 42 43 45 48 50 52 55 57 57 55 52 45 35 28 25 25 26 28 28 28 32 31 20 12 12 10 9 9 6 6 8 11 16 20 26 34 40 45 50 52
28 28 27 26 26 25 26 26 26 26 25 25 25 25 25 26 26 26 26 26 26 25 24 23 23 24 25 26 27 28 30 30 31 31 30 30 31 32 34 36 37 38 39 39 40 42 43 45 47 49 52 54 55 55 55 52 46 37 28 24 23 25 30 30 29 31 30 20 12 12 11 8 8 6 4 6 9 15 19 22 27 33 38 43 48
28 27 26 25 25 25 25 25 25 24 24 24 24 24 25 25 25 25 25 24 24 23 22 22 23 24 24 25 26 27 28 29 28 28 28 28 29 31 32 34 36 37 38 39 40 42 44 45 47 48 50 52 53 53 53 52 48 39 30 24 23 23 28 30 27 27 26 20 14 13 11 7 7 6 5 6 8 12 18 22 26 31 35 39 43
26 25 24 24 24 24 24 24 23 23 23 23 23 23 24 24 24 23 23 22 21 20 21 21 22 23 23 25 26 27 27 27 27 26 26 27 28 30 31 33 35 36 37 38 40 42 44 44 45 46 47 49 51 51 51 50 48 42 32 25 22 21 23 26 26 25 25 20 14 13 11 8 7 6 6 8 8 10 16 22 27 31 34 37 40
24 23 23 23 23 23 22 22 22 22 22 22 22 23 23 22 22 21 20 19 19 19 19 20 21 22 23 24 25 25 26 26 26 26 26 27 28 30 32 34 35 36 37 39 40 42 43 44 44 44 45 47 49 50 51 50 49 45 36 27 22 20 21 23 24 25 25 23 19 15 12 7 7 7 7 9 11 11 14 19 26 31 34 35 35
22 22 22 22 21 21 21 21 21 21 21 21 21 21 21 21 20 19 18 17 17 17 18 19 20 21 22 23 24 24 25 25 25 25 26 27 28 30 31 33 35 36 37 38 40 41 42 43 43 43 44 46 47 49 51 51 49 47 42 33 25 20 20 21 21 22 23 23 22 20 16 9 3 7 9 9 12 14 15 18 24 29 31 32 32
21 20 20 20 20 20 20 20 20 20 20 20 20 20 19 19 18 17 16 15 16 17 17 18 19 20 21 22 23 23 23 24 24 24 26 27 28 30 31 33 34 36 37 38 39 40 42 43 43 43 44 44 46 48 49 51 50 49 46 40 31 23 18 19 21 22 21 21 21 22 19 15 9 1 6 9 11 14 16 18 23 27 28 29 30
19 19 19 19 20 20 20 19 19 19 19 19 19 18 17 17 16 15 14 14 15 16 16 16 17 19 20 21 22 23 23 23 24 25 25 27 28 29 31 33 34 36 36 37 38 39 41 42 43 44 43 44 45 46 47 49 50 50 48 45 40 31 22 18 20 22 21 19 19 21 20 17 12 7 2 5 8 12 16 18 21 25 27 28 28
18 19 19 19 19 19 18 18 18 18 18 18 17 16 16 15 14 13 13 13 14 14 15 15 16 18 19 20 21 22 22 23 24 25 26 27 28 29 31 32 34 35 36 36 37 38 40 41 42 43 44 44 44 44 45 47 48 49 49 48 45 40 31 22 18 19 19 18 17 18 20 19 14 7 2 2 3 5 10 15 19 21 23 25 27
18 19 18 19 19 18 18 17 17 17 17 16 15 15 14 13 12 12 12 12 13 13 14 14 15 17 18 20 21 21 22 23 24 25 26 27 28 29 30 32 33 34 35 36 36 37 38 40 41 43 44 44 44 43 44 45 46 48 48 48 47 45 40 32 23 17 16 17 17 16 17 19 17 11 3 2 1 2 4 8 13 15 16 19 22
18 18 18 18 18 18 17 17 16 16 15 14 14 14 12 11 10 10 10 11 12 13 13 14 15 16 18 19 20 21 22 23 24 25 26 27 28 29 30 31 32 33 34 35 36 37 38 39 40 42 43 44 44 44 43 43 44 46 47 47 48 46 44 41 34 25 18 16 16 16 15 15 16 14 9 1 4 4 1 2 6 10 12 13 14
18 18 18 18 17 17 16 16 15 14 13 13 12 11 10 9 9 9 9 10 11 12 13 14 15 16 17 19 20 21 22 23 24 25 26 27 28 29 30 30 31 33 34 35 36 37 37 38 39 40 42 43 43 44 43 43 43 44 45 46 47 47 46 45 42 36 28 20 16 15 14 13 13 13 12 8 3 3 5 5 5 6 8 9 10
18 18 18 17 17 16 15 14 13 12 12 12 11 9 8 8 8 8 8 9 10 11 13 14 15 16 17 18 20 21 22 23 24 25 26 27 28 29 30 31 32 33 34 35 35 36 37 37 38 39 41 42 43 43 44 43 43 42 43 43 44 45 46 45 44 42 39 32 24 17 13 12 12 12 11 11 9 6 3 5 7 7 8 8 8
18 18 18 17 16 15 14 13 12 11 11 10 9 7 7 7 7 7 7 8 10 11 12 14 15 16 17 18 20 21 22 23 24 25 26 27 28 29 31 31 32 33 33 34 35 36 36 37 37 38 39 40 42 42 43 43 43 42 42 42 42 42 43 44 44 43 42 39 34 27 20 15 12 12 11 11 10 9 7 4 5 8 10 10 10
18 18 17 16 15 14 13 12 11 11 10 9 7 6 6 6 6 6 7 8 10 11 12 14 15 16 18 19 20 21 22 24 25 26 27 28 29 29 30 31 32 32 33 34 34 35 36 36 37 37 38 39 40 41 42 43 43 43 42 41 41 41 41 42 43 43 43 41 39 36 31 24 18 14 12 10 9 8 8 7 5 5 8 11 12
18 18 17 15 14 12 12 11 10 9 8 7 6 6 6 6 6 7 7 8 10 11 12 14 15 17 18 19 21 22 23 24 25 26 26 27 28 29 30 31 31 32 32 33 33 34 35 36 36 37 37 38 38 39 40 41 41 42 42 41 40 40 40 40 40 41 41 42 41 40 37 33 28 22 16 12 10 9 8 8 7 6 5 7 10
19 18 16 14 12 11 11 10 9 8 7 7 6 6 6 7 7 8 8 9 10 12 13 14 15 17 18 20 21 22 23 24 25 26 27 27 28 29 30 30 31 31 32 32 33 33 34 35 35 36 36 36 37 37 38 39 40 40 41 41 40 40 39 39 38 39 39 40 40 40 39 37 35 31 27 21 16 12 10 9 8 7 7 6 6
19 17 15 13 12 11 10 8 7 7 7 7 7 7 7 8 8 9 10 11 12 13 14 15 16 17 19 20 21 23 23 24 25 26 27 28 28 29 29 30 31 31 32 32 33 33 33 33 34 35 35 35 36 36 36 37 38 39 39 40 40 39 39 38 37 37 37 37 38 38 38 38 37 35 33 30 25 20 16 12 9 8 8 7 7
19 17 15 13 11 10 9 8 7 7 7 7 8 8 9 9 10 11 12 13 14 15 16 17 18 19 20 21 22 23 24 25 26 26 27 28 29 29 29 30 31 31 32 32 32 33 33 33 33 34 34 35 35 35 35 35 36 36 37 38 38 38 38 38 37 36 36 35 35 35 36 36 36 36 35 33 31 28 24 20 16 12 9 8 8
18 17 15 13 11 10 9 8 7 7 8 8 9 10 11 12 12 13 15 16 17 17 18 19 19 20 21 22 24 25 25 26 26 27 27 28 29 29 30 30 30 31 32 32 32 32 33 33 33 33 33 33 34 34 35 35 35 34 35 36 36 36 37 37 36 36 36 35 34 34 34 34 34 34 34 33 32 31 29 27 24 20 16 12 9
19 17 15 14 12 11 10 9 9 9 9 10 11 12 13 14 15 16 17 18 19 19 20 21 22 22 23 24 25 26 27 27 27 28 28 28 28 29 30 30 30 31 31 32 32 32 33 33 33 33 33 33 33 33 33 34 34 34 34 34 34 35 35 36 36 36 35 35 34 33 33 32 32 32 32 32 32 32 31 30 28 26 23 20 17
19 18 16 15 14 13 12 11 11 12 12 13 13 14 15 16 17 18 19 20 21 21 22 23 24 25 25 26 27 28 28 28 28 29 28 29 29 29 29 30 30 31 31 32 32 32 32 33 33 33 33 32 32 32 32 33 33 33 33 33 33 33 34 34 34 34 34 34 34 33 32 32 31 31 30 31 31 31 30 30 29 28 27 25 23
20 19 18 17 16 15 14 14 14 14 15 15 16 17 18 19 19 20 21 22 23 24 24 25 26 27 28 28 29 29 29 29 29 29 29 29 29 30 30 30 30 31 31 31 32 32 32 32 33 33 33 32 32 32 31 31 31 32 32 32 32 32 32 32 33 33 33 33 33 33 32 32 31 30 29 29 29 29 29 28 28 28 27 27 25
21 20 19 19 18 17 17 17 17 17 17 18 19 20 20 21 22 23 24 25 26 26 27 28 28 29 29 30 31 31 31 30 30 30 30 30 30 30 30 30 31 31 31 31 32 32 32 32 33 33 33 33 32 32 31 31 31 31 31 31 31 31 31 31 31 31 32 32 32 32 32 32 31 30 29 29 28 28 27 27 27 27 27 26 26
23 22 22 21 20 20 19 19 19 19 20 21 21 22 23 24 24 25 26 27 28 29 29 30 30 31 31 32 32 33 32 31 31 30 30 31 31 31 31 31 31 32 31 32 32 32 32 32 32 33 33 33 33 32 32 32 31 30 30 30 30 30 30 29 29 30 30 30 30 30 30 31 31 30 30 29 28 27 27 26 26 26 26 26 25
24 24 23 23 22 22 22 22 21 22 22 23 24 25 26 26 27 27 28 29 30 30 31 32 32 33 33 34 34 34 33 32 32 31 31 31 32 32 32 32 32 32 32 32 32 32 32 32 32 33 33 33 33 33 33 32 32 31 30 30 30 29 29 29 28 28 28 29 29 29 29 29 29 29 29 28 28 27 27 26 25 25 25 25 25
Wind_Direction
285 285 285 286 287 288 289 287 284 281 279 278 277 277 278 278 280 281 283 284 286 287 289 291 294 297 300 302 303 304 304 304 304 305 305 305 305 304 303 302 300 299 298 296 295 294 293 292 291 289 288 287 286 286 285 284 283 282 281 280 279 278 277 276 275 273 272 268 263 261 259 260 262 263 263 264 264 265 267 268 267 264 264 265 262
288 289 290 290 290 290 288 285 282 278 276 276 276 276 277 278 280 282 283 284 285 287 289 292 295 298 300 301 302 302 303 304 305 305 305 305 304 303 302 301 300 299 297 296 295 294 293 292 291 290 288 287 286 285 283 282 282 281 280 279 278 278 277 276 274 273 272 269 266 264 261 258 258 260 262 261 261 261 262 265 267 265 262 262 263
290 291 291 292 291 290 287 284 280 277 276 275 275 276 277 279 280 281 282 284 285 288 290 293 296 298 299 300 301 302 303 304 305 305 305 304 303 302 301 300 299 298 297 296 295 295 294 292 291 291 289 288 287 286 284 283 281 280 279 278 277 276 275 275 274 272 271 269 267 265 263 260 258 258 259 259 259 259 259 260 262 264 263 261 261
291 291 291 291 291 289 286 282 279 277 276 275 276 277 279 280 281 281 283 285 287 290 292 294 296 298 299 300 301 303 304 305 305 305 304 303 302 301 301 300 299 298 297 296 295 294 293 292 292 291 290 289 288 287 285 284 283 281 280 279 277 276 275 274 273 272 270 268 266 264 263 261 259 258 258 258 257 257 257 257 258 260 261 260 259
290 290 290 290 289 288 286 282 279 278 277 277 278 279 280 281 282 283 285 287 290 292 294 296 297 298 300 301 303 304 304 305 304 304 303 302 302 301 301 300 299 299 298 297 296 295 294 293 292 291 290 289 288 286 285 284 283 282 280 279 278 276 275 274 272 271 270 268 266 263 262 261 259 258 257 257 256 256 256 256 255 256 257 258 258
288 288 288 288 287 286 286 284 282 281 280 280 280 282 283 284 285 287 288 290 292 294 295 297 298 300 302 303 304 304 304 304 303 302 302 301 301 301 301 300 300 299 299 298 298 297 296 295 294 293 292 291 289 288 286 285 283 282 281 279 278 276 275 274 273 271 270 268 266 263 261 260 259 257 256 255 255 254 255 255 254 254 255 257 258
285 286 286 286 286 287 287 286 284 283 282 282 283 284 285 287 288 290 291 292 294 295 297 299 300 302 302 303 304 304 303 303 302 302 301 301 301 301 301 301 301 300 300 300 299 299 298 298 297 296 295 294 292 290 289 287 285 283 282 280 278 277 275 274 272 272 270 269 267 264 261 259 258 256 255 254 254 253 253 253 253 253 253 254 255
283 284 284 285 287 288 289 288 286 285 284 284 285 286 287 289 290 291 292 294 296 297 299 300 302 302 303 303 303 303 302 302 302 302 302 302 302 302 302 302 302 302 302 301 301 301 300 299 298 297 296 295 294 292 291 289 288 286 284 282 280 278 276 274 272 271 270 269 267 265 262 259 257 256 254 253 252 252 251 251 251 251 251 250 251
281 282 282 284 286 289 289 289 288 287 287 286 287 288 289 290 291 293 295 296 298 299 301 302 303 303 303 303 302 301 301 301 301 302 302 302 302 303 303 303 303 304 304 303 303 302 301 300 299 298 297 296 295 294 293 291 290 288 286 284 282 280 278 276 273 271 269 267 266 265 263 260 257 256 254 252 251 250 250 250 250 250 250 249 249
281 281 281 283 285 286 288 288 288 288 289 288 289 290 291 292 294 296 297 298 300 301 302 303 303 303 302 301 301 301 301 301 302 302 302 303 304 304 304 305 305 305 305 304 304 303 303 302 301 300 299 298 297 296 295 293 292 290 288 286 284 282 280 277 275 272 270 267 265 264 262 260 258 255 253 251 250 249 248 248 248 248 248 248 247
280 280 280 281 283 284 286 287 287 288 288 289 289 291 293 295 296 298 299 300 301 303 303 303 302 301 301 301 301 302 302 302 303 303 304 305 305 305 306 306 306 306 306 306 306 306 305 304 303 302 301 300 299 298 296 295 294 293 291 289 287 285 282 279 277 274 271 268 266 263 261 259 257 255 254 251 249 247 246 246 246 246 247 246 245
280 279 280 281 283 284 285 286 287 287 288 289 291 293 295 296 298 299 300 302 303 303 303 302 301 301 301 301 302 303 303 304 304 305 305 306 306 307 307 308 308 308 309 308 308 307 307 306 305 305 304 302 301 300 299 297 296 295 294 292 290 287 285 282 279 276 273 270 267 264 261 258 256 254 253 251 249 246 245 244 244 244 245 245 245
280 280 281 283 284 285 286 286 286 287 289 291 293 295 297 298 299 301 302 303 303 302 302 301 301 301 302 303 303 304 304 305 305 306 306 307 308 309 309 310 311 311 311 311 310 310 310 309 309 308 307 306 304 303 302 301 299 298 296 294 291 289 287 284 281 278 275 271 268 265 262 259 255 253 251 251 249 246 244 243 242 242 242 243 243
279 280 283 284 284 285 285 286 287 289 291 294 296 297 298 300 301 302 303 303 303 301 301 301 301 302 303 304 304 304 305 306 306 307 308 309 310 312 313 314 314 315 315 314 314 314 314 313 312 312 311 310 309 308 307 305 303 301 299 296 294 291 289 286 283 280 276 273 269 265 262 259 255 252 249 249 248 245 243 241 240 240 240 241 241
280 282 283 283 283 284 285 286 289 292 294 296 297 299 300 301 303 303 303 302 301 300 300 301 302 303 303 304 304 305 306 307 308 309 311 312 314 315 317 318 318 319 319 319 318 318 318 317 317 316 315 314 313 312 311 309 307 305 303 300 297 294 291 288 284 280 276 273 269 265 262 259 255 251 248 246 246 245 242 240 239 239 239 239 239
280 282 282 282 282 284 286 288 291 294 295 297 298 300 301 302 302 302 301 300 300 300 301 302 303 303 303 304 305 306 307 308 310 312 314 316 318 319 321 322 322 322 323 323 323 322 322 321 320 319 319 318 317 316 315 313 311 309 306 303 300 297 293 290 286 282 277 273 269 265 261 257 254 251 247 244 243 243 241 239 237 237 237 236 237
279 281 281 282 283 285 288 290 293 294 296 298 299 301 301 301 301 300 300 300 300 301 302 302 303 303 303 305 306 307 308 310 312 314 316 319 321 323 324 325 325 326 326 327 327 326 325 324 323 322 322 321 321 319 319 318 316 313 310 306 302 299 296 292 289 285 281 276 272 267 262 257 252 249 246 242 240 240 239 237 236 235 235 234 235
277 280 281 282 284 286 289 291 293 294 296 298 299 300 300 300 300 299 299 299 300 301 302 302 302 302 304 305 306 307 309 311 314 317 319 322 324 325 327 327 328 329 330 330 330 328 327 327 326 326 326 325 325 324 324 323 321 317 314 309 305 302 300 297 294 290 286 282 277 273 267 260 253 247 244 240 237 237 236 235 234 234 233 232 232
277 279 281 282 284 286 288 290 292 294 296 298 299 299 299 299 299 298 299 300 301 301 301 301 301 303 305 306 307 309 311 314 317 319 322 324 326 327 328 329 330 332 333 333 332 331 331 330 330 330 330 329 330 330 330 329 326 322 318 313 310 307 306 304 301 297 291 285 281 278 273 266 257 249 243 239 235 233 233 232 232 232 231 230 230
277 279 280 281 282 285 287 290 292 294 296 297 298 298 298 297 297 298 299 300 300 300 299 301 302 304 306 307 308 311 314 316 319 321 324 326 328 329 330 331 333 334 335 334 334 334 333 333 333 333 333 334 335 336 335 334 331 328 324 320 317 316 315 314 311 306 299 291 285 281 278 273 264 253 244 239 233 230 230 230 229 229 229 228 228
277 278 279 279 282 284 287 289 292 294 296 296 296 297 296 296 297 299 299 299 298 298 300 302 304 306 307 308 311 314 316 319 321 324 326 328 329 330 331 333 335 336 336 336 336 336 336 336 336 337 337 339 341 341 340 338 336 334 332 328 326 327 327 324 321 316 310 304 297 288 282 280 274 261 248 239 232 227 227 227 226 226 227 227 226
275 276 276 278 281 284 286 290 292 294 294 295 295 295 295 296 297 298 297 296 297 299 302 304 305 307 308 310 313 316 319 321 324 326 328 329 330 331 333 335 337 337 338 339 339 338 338 338 339 340 342 344 345 344 344 343 341 340 340 338 335 335 337 336 334 332 329 324 318 306 294 293 289 275 257 243 231 224 223 224 223 222 224 225 225
272 273 275 278 280 284 287 290 291 292 293 293 293 293 295 296 296 295 295 296 299 301 303 305 306 308 310 313 316 319 321 324 326 328 330 331 332 333 335 337 338 338 340 340 341 341 340 341 342 345 347 349 349 348 348 347 345 344 347 347 341 337 341 344 343 342 340 334 327 319 309 307 306 291 272 252 233 223 221 221 220 220 221 223 223
269 271 274 277 280 284 287 288 290 290 291 291 291 293 294 294 293 294 295 298 301 303 305 306 308 310 313 317 319 322 323 326 328 329 331 332 334 336 337 338 339 340 342 342 343 343 343 344 346 349 351 352 352 351 351 351 348 347 348 351 347 340 339 342 342 341 339 334 326 322 318 316 316 304 285 263 236 223 220 220 218 217 219 220 221
267 271 273 276 280 283 285 287 288 289 289 289 291 292 292 292 292 295 298 301 303 304 306 308 311 314 317 320 322 324 326 327 329 331 332 334 335 337 338 338 340 342 344 344 345 346 346 347 350 352 354 356 355 354 354 354 352 349 347 350 350 344 338 337 339 341 342 337 327 324 321 317 317 304 279 263 238 221 219 220 218 217 217 218 218
267 270 272 275 280 282 284 286 286 286 287 289 289 289 290 291 294 297 300 302 304 306 309 311 315 318 321 323 325 326 328 329 331 332 333 335 336 337 338 340 343 344 345 346 347 348 349 351 353 355 357 359 359 357 357 357 355 351 348 346 348 351 346 340 338 342 346 347 341 335 326 314 313 299 262 255 235 215 210 214 217 216 216 217 217
267 268 271 275 279 281 283 284 284 284 286 287 287 288 290 293 296 299 301 304 306 308 311 315 318 321 323 325 326 328 329 331 332 333 334 335 336 338 340 342 345 346 347 349 350 351 353 354 356 358 360 1 2 0 360 360 358 355 350 345 344 353 357 354 348 346 351 358 357 345 335 314 306 295 249 242 235 216 206 206 211 214 214 216 218
264 266 271 275 277 279 280 281 281 283 284 284 286 288 292 295 298 301 303 306 308 311 314 318 321 323 325 326 327 329 331 332 332 334 335 336 337 340 342 344 347 348 349 351 353 355 356 357 358 360 1 3 4 4 3 3 1 358 354 346 340 346 357 3 359 351 353 3 3 347 337 318 301 287 241 224 228 219 208 203 206 209 210 214 218
262 267 271 274 276 277 277 277 279 280 281 283 286 290 294 297 300 303 306 308 310 313 318 321 323 325 326 328 329 331 332 332 333 335 337 338 340 343 345 346 348 350 351 354 357 358 359 359 359 1 2 4 6 7 6 6 5 3 359 349 339 340 351 2 4 356 354 3 7 351 337 319 298 282 244 224 221 217 210 206 206 206 208 212 216
265 269 272 273 274 273 273 274 276 277 280 284 288 292 296 299 302 305 307 309 312 316 321 323 325 327 329 331 333 333 333 335 336 338 340 342 344 346 348 349 350 352 354 358 0 1 1 1 0 1 3 5 7 8 9 10 10 8 6 357 345 340 343 355 6 7 2 2 7 8 2 335 291 275 252 225 216 213 209 207 207 208 210 213 216
267 270 271 270 269 269 271 273 274 276 281 286 290 294 298 301 304 306 308 310 314 318 322 324 326 329 332 334 336 337 337 338 340 342 344 345 347 349 351 351 352 355 358 1 2 2 3 3 2 1 3 5 8 10 11 13 13 13 12 7 357 345 339 345 2 16 15 9 10 16 23 27 331 263 253 235 221 216 212 208 208 210 213 216 218
268 269 268 266 267 269 270 271 273 277 283 288 292 296 300 303 305 307 308 311 316 320 323 326 329 333 336 338 340 340 341 342 344 346 347 348 350 351 353 353 355 358 0 2 3 4 4 4 3 3 3 5 8 11 12 14 16 16 16 14 9 359 345 341 352 6 14 15 16 18 24 34 47 63 234 234 230 226 220 213 209 209 211 215 218
269 266 264 265 266 267 267 269 274 280 286 290 294 298 302 304 305 307 309 314 318 321 325 329 333 337 341 342 343 344 345 346 347 349 350 351 352 353 355 356 358 359 0 2 3 5 6 5 5 5 4 5 8 11 13 15 17 18 18 19 18 13 3 350 346 351 359 8 16 20 22 25 36 56 141 209 219 221 222 217 210 208 211 214 215
265 262 263 263 262 263 266 271 276 282 287 291 296 300 303 304 306 307 311 316 319 323 327 333 339 343 345 347 348 349 349 350 351 352 353 354 354 355 357 358 359 360 0 2 4 5 6 6 6 6 6 6 8 10 13 15 17 19 20 21 21 21 18 8 351 343 349 359 6 15 21 24 28 40 81 176 160 178 202 211 211 210 214 217 220
261 260 259 258 257 260 266 272 278 283 288 293 298 301 303 304 305 308 312 317 321 325 330 337 343 347 349 351 352 352 353 353 354 354 355 356 356 357 358 360 360 0 1 2 3 5 6 7 7 7 7 8 8 10 12 15 17 19 21 22 23 23 23 21 12 355 349 353 357 4 15 23 27 32 36 231 214 98 137 185 199 205 210 219 226
257 256 255 254 255 259 266 273 279 283 289 295 298 299 301 302 304 308 314 319 323 327 333 340 346 350 352 354 355 356 356 357 357 357 358 358 358 359 360 1 1 2 2 2 3 5 6 7 8 8 9 9 9 10 11 13 16 19 21 22 24 24 25 25 25 19 7 356 352 355 3 13 21 28 36 27 251 261 267 182 194 201 204 210 219
253 252 250 250 253 260 268 273 278 283 290 295 296 296 297 299 302 309 317 323 328 332 337 343 348 352 354 356 357 358 359 359 360 0 360 360 360 0 1 2 2 3 3 3 4 5 6 7 8 9 9 10 10 10 11 12 14 17 20 22 23 24 25 26 27 27 25 18 5 354 352 359 10 20 28 31 9 274 258 249 236 226 221 218 216
250 247 246 248 254 261 267 272 277 284 290 292 291 291 292 295 300 309 319 328 334 337 341 345 349 351 354 356 357 358 359 360 0 1 0 0 1 1 1 2 3 3 4 4 4 4 5 6 7 8 9 10 10 11 11 12 13 15 17 20 22 24 25 26 27 28 29 28 24 14 359 353 358 6 15 23 23 10 311 263 252 251 254 253 249
245 243 244 249 255 262 267 272 278 284 287 287 284 283 285 290 298 309 321 331 338 342 344 347 349 351 353 355 357 358 359 359 359 359 359 360 0 1 1 2 2 3 3 4 3 4 4 5 6 7 8 9 10 11 11 12 12 13 14 17 20 22 24 26 27 28 29 29 29 29 24 12 360 355 359 7 14 17 12 342 285 265 263 265 268
240 240 243 249 255 260 266 272 278 282 283 280 274 273 279 287 296 308 321 331 338 342 345 347 349 351 352 354 356 357 357 358 358 358 358 358 358 359 359 360 360 1 1 2 2 3 4 4 5 6 7 8 9 10 11 11 12 12 13 14 16 19 22 24 26 27 28 29 30 31 32 29 23 11 360 354 354 360 8 9 353 306 276 270 273
237 238 243 248 252 257 264 271 275 277 274 270 266 269 278 286 295 307 319 328 335 339 342 345 348 349 350 352 353 355 355 356 356 356 356 356 356 357 357 358 358 358 358 359 0 1 2 3 4 5 6 7 8 9 10 11 11 12 12 12 13 15 17 21 23 25 26 27 29 30 32 33 33 31 24 12 359 349 347 350 356 352 324 293 286
234 237 241 244 247 254 262 268 269 267 263 260 262 269 279 288 298 308 317 324 329 333 337 340 343 345 347 348 349 351 352 352 353 353 354 354 354 354 355 355 355 356 356 356 357 358 360 1 2 3 4 5 7 7 9 9 10 11 11 12 12 13 14 16 19 22 24 25 26 28 29 31 33 35 35 32 24 12 356 344 339 339 340 330 312
232 235 237 238 244 252 259 261 259 257 255 257 264 273 281 291 300 308 315 320 324 327 330 333 336 339 341 342 343 345 347 348 348 349 349 350 351 351 351 352 352 353 354 354 354 355 356 358 360 1 2 3 4 6 7 8 9 10 10 11 12 12 13 13 15 18 20 22 24 25 26 28 30 32 34 35 34 30 24 13 356 338 327 322 318
231 231 231 234 240 247 252 253 252 250 253 260 268 277 286 294 301 308 312 316 319 321 323 326 328 331 334 336 337 338 340 341 343 344 344 345 346 347 348 349 349 350 350 351 352 352 353 354 356 358 359 0 1 2 4 5 7 8 9 9 10 11 11 12 13 14 16 18 20 22 24 25 27 29 30 32 34 35 34 30 25 14 356 334 318
229 227 227 231 236 241 245 247 249 252 259 266 273 281 289 295 300 305 308 311 313 315 317 319 321 324 327 329 330 331 333 334 336 337 339 340 341 342 343 345 345 346 347 348 348 349 350 351 352 354 356 357 358 359 0 2 3 5 6 7 8 9 10 11 12 12 13 14 16 18 20 21 23 25 27 28 30 32 34 34 33 30 25 16 359
227 225 226 229 233 236 241 245 250 257 265 271 277 283 288 293 297 300 303 306 308 310 312 314 316 318 320 322 323 324 325 327 329 331 332 334 336 337 338 339 341 342 343 344 345 346 346 347 349 350 352 353 355 356 357 358 359 1 3 4 5 7 8 9 10 11 11 11 12 14 16 17 18 20 22 23 25 27 29 31 32 32 31 29 26
226 226 227 229 232 236 240 246 252 259 266 272 278 283 287 291 294 297 300 302 304 306 308 310 312 314 316 317 318 318 319 321 322 324 326 328 330 331 333 334 335 337 338 339 341 342 343 343 345 346 348 349 351 352 353 354 355 356 358 360 2 3 5 6 7 8 9 9 10 11 12 13 14 15 16 18 20 22 23 24 26 28 29 29 29
228 228 230 232 235 239 242 247 254 261 267 273 278 282 286 290 293 295 297 299 301 303 305 306 308 311 313 314 314 314 315 316 317 319 321 322 324 325 327 329 330 331 333 334 336 337 339 340 340 341 343 345 346 347 349 350 351 352 353 355 357 359 1 2 3 5 6 7 7 7 8 9 11 12 13 13 14 16 17 18 19 21 22 23 24
229 231 232 235 239 242 246 251 257 263 269 274 279 283 286 289 292 294 296 297 299 301 303 304 306 308 309 310 311 311 312 312 313 314 315 317 319 320 322 323 325 326 327 329 331 332 334 335 336 337 338 340 341 342 344 345 346 348 349 350 351 353 356 358 359 0 2 3 4 5 5 5 6 7 9 10 10 10 11 12 13 14 14 16 17
231 233 235 238 242 246 250 255 260 265 271 276 280 283 287 289 291 293 295 297 299 301 302 303 304 305 306 307 309 310 310 310 310 310 311 312 313 315 316 318 319 321 322 324 325 327 329 330 331 333 334 335 336 337 339 340 341 342 344 345 346 348 349 352 354 355 357 358 359 1 2 2 2 3 4 5 6 6 6 7 7 8 8 8 9
235 237 239 242 245 248 252 257 262 267 272 276 280 283 286 288 291 293 295 298 300 301 302 302 302 302 304 305 307 308 308 307 307 306 307 307 308 310 312 313 314 315 317 318 320 321 323 325 326 328 329 330 331 332 333 335 336 337 338 339 341 342 343 345 347 349 351 352 354 355 357 358 359 359 359 360 1 2 2 3 3 3 2 2 2
Height
5805 5805 5804 5803 5802 5801 5800 5799 5798 5797 5797 5796 5795 5794 5794 5793 5792 5791 5789 5788 5787 5786 5784 5783 5781 5779 5777 5775 5773 5771 5768 5766 5764 5762 5760 5757 5755 5753 5751 5749 5747 5745 5743 5741 5739 5737 5735 5733 5731 5729 5727 5726 5724 5722 5720 5718 5717 5715 5714 5713 5712 5710 5708 5708 5707 5709 5713 5714 5714 5714 5715 5713 5713 5713 5712 5712 5714 5714 5714 5714 5715 5716 5716 5716 5716
5802 5801 5800 5799 5798 5797 5796 5795 5794 5793 5792 5792 5791 5790 5790 5789 5788 5787 5786 5784 5783 5782 5780 5778 5777 5775 5773 5770 5768 5766 5764 5761 5759 5757 5755 5753 5750 5748 5746 5744 5741 5739 5737 5735 5733 5731 5729 5727 5725 5723 5721 5719 5717 5716 5714 5712 5710 5708 5707 5706 5705 5703 5701 5700 5700 5700 5703 5707 5706 5706 5706 5707 5707 5707 5705 5705 5706 5707 5706 5707 5708 5708 5709 5710 5710
5798 5797 5796 5795 5794 5793 5792 5791 5790 5789 5789 5788 5787 5786 5786 5785 5784 5783 5782 5780 5779 5777 5776 5774 5772 5770 5768 5766 5764 5761 5759 5757 5754 5752 5750 5748 5745 5743 5741 5739 5736 5734 5732 5730 5727 5725 5723 5721 5718 5716 5714 5712 5710 5708 5706 5704 5703 5701 5700 5698 5697 5696 5695 5693 5692 5692 5693 5697 5699 5698 5698 5699 5700 5700 5698 5698 5699 5699 5699 5701 5702 5702 5702 5703 5704
5794 5793 5792 5791 5790 5789 5788 5787 5786 5785 5785 5784 5783 5783 5782 5781 5780 5779 5777 5776 5775 5773 5771 5770 5768 5765 5763 5761 5759 5756 5754 5752 5749 5747 5745 5742 5740 5738 5735 5733 5731 5728 5726 5724 5721 5719 5717 5714 5712 5710 5707 5705 5703 5700 5698 5696 5695 5693 5692 5691 5689 5688 5687 5685 5684 5683 5684 5687 5691 5691 5689 5690 5691 5691 5691 5691 5691 5691 5692 5693 5694 5695 5696 5697 5697
5790 5789 5788 5787 5786 5785 5784 5783 5782 5781 5781 5780 5779 5778 5778 5777 5776 5774 5773 5772 5770 5768 5767 5765 5763 5760 5758 5756 5754 5751 5749 5747 5744 5742 5740 5737 5735 5732 5730 5727 5725 5723 5720 5718 5715 5713 5710 5708 5705 5703 5701 5698 5695 5693 5691 5689 5687 5685 5683 5682 5681 5679 5679 5677 5676 5675 5675 5676 5680 5682 5682 5681 5683 5683 5683 5682 5683 5683 5684 5685 5687 5688 5689 5690 5691
5786 5785 5784 5783 5782 5781 5780 5779 5778 5778 5777 5776 5775 5774 5773 5772 5771 5770 5769 5767 5766 5764 5762 5760 5758 5756 5753 5751 5749 5746 5744 5742 5739 5737 5735 5732 5730 5727 5724 5722 5719 5717 5714 5711 5709 5706 5703 5701 5698 5696 5693 5691 5688 5685 5683 5681 5679 5677 5675 5673 5672 5670 5669 5668 5667 5666 5666 5666 5668 5672 5673 5672 5673 5675 5674 5673 5674 5675 5676 5677 5679 5680 5681 5682 5684
5781 5781 5780 5779 5778 5777 5776 5775 5774 5774 5773 5772 5771 5770 5769 5768 5767 5766 5764 5762 5761 5759 5757 5755 5753 5751 5748 5746 5744 5742 5739 5737 5734 5732 5730 5727 5724 5722 5719 5716 5713 5711 5708 5705 5702 5699 5696 5694 5691 5688 5685 5683 5680 5677 5674 5672 5670 5668 5666 5664 5662 5661 5660 5659 5658 5656 5656 5656 5657 5659 5662 5663 5663 5664 5665 5665 5665 5666 5667 5668 5670 5672 5674 5674 5676
5777 5777 5776 5775 5774 5773 5772 5771 5770 5769 5769 5768 5767 5766 5765 5764 5763 5761 5760 5758 5756 5754 5752 5750 5748 5746 5744 5741 5739 5737 5734 5732 5729 5727 5724 5722 5719 5716 5714 5711 5708 5705 5702 5699 5696 5693 5690 5687 5684 5681 5678 5675 5672 5668 5665 5662 5660 5658 5656 5654 5652 5651 5650 5648 5648 5647 5645 5645 5646 5647 5650 5653 5653 5653 5655 5656 5656 5657 5658 5659 5661 5663 5664 5666 5668
5773 5773 5772 5771 5770 5769 5768 5767 5766 5765 5764 5764 5763 5762 5761 5760 5758 5757 5755 5753 5751 5750 5748 5746 5743 5741 5739 5737 5735 5732 5730 5728 5725 5722 5719 5717 5714 5711 5708 5705 5702 5699 5696 5693 5689 5686 5683 5680 5677 5674 5671 5668 5664 5661 5657 5653 5650 5648 5645 5643 5641 5640 5639 5637 5637 5636 5635 5635 5635 5635 5637 5640 5642 5642 5643 5645 5646 5647 5649 5650 5652 5654 5655 5658 5661
5769 5769 5768 5767 5766 5765 5764 5763 5762 5761 5761 5760 5759 5758 5757 5756 5754 5753 5751 5749 5747 5745 5743 5741 5739 5737 5734 5732 5730 5728 5725 5723 5720 5718 5715 5712 5709 5706 5703 5700 5697 5693 5690 5687 5683 5680 5676 5673 5670 5666 5663 5660 5657 5653 5649 5645 5641 5638 5635 5632 5629 5628 5627 5626 5624 5624 5624 5623 5623 5624 5625 5627 5629 5630 5631 5634 5636 5637 5639 5640 5642 5644 5646 5649 5653
5765 5765 5764 5763 5762 5761 5760 5759 5758 5757 5757 5756 5755 5754 5753 5751 5750 5748 5747 5745 5743 5740 5738 5736 5734 5732 5730 5728 5725 5723 5720 5718 5715 5713 5710 5707 5704 5701 5698 5695 5691 5688 5685 5681 5677 5674 5670 5666 5663 5659 5656 5653 5649 5646 5642 5638 5633 5629 5625 5621 5618 5615 5613 5612 5611 5611 5610 5610 5611 5611 5612 5615 5617 5618 5619 5621 5624 5626 5629 5631 5633 5635 5637 5640 5644
5761 5761 5760 5759 5758 5757 5756 5755 5755 5754 5753 5752 5751 5750 5749 5747 5746 5744 5742 5740 5738 5736 5734 5732 5730 5728 5725 5723 5721 5718 5716 5713 5711 5708 5705 5702 5699 5696 5693 5689 5686 5683 5679 5675 5671 5668 5664 5660 5656 5653 5649 5646 5642 5638 5634 5630 5626 5621 5617 5612 5608 5604 5601 5598 5597 5596 5596 5596 5597 5598 5599 5601 5604 5606 5607 5608 5611 5615 5618 5621 5624 5626 5628 5631 5635
5758 5757 5756 5755 5754 5753 5753 5752 5751 5750 5749 5748 5747 5746 5745 5743 5742 5740 5738 5736 5734 5732 5730 5728 5725 5723 5721 5718 5716 5713 5711 5708 5706 5703 5700 5697 5694 5691 5688 5684 5680 5677 5673 5669 5665 5661 5657 5653 5649 5645 5642 5638 5634 5630 5626 5621 5617 5612 5607 5602 5597 5593 5589 5586 5584 5582 5580 5580 5581 5583 5584 5585 5589 5594 5595 5594 5598 5603 5607 5610 5614 5616 5619 5622 5626
5754 5753 5752 5751 5750 5750 5749 5748 5747 5747 5746 5745 5744 5742 5741 5739 5738 5736 5734 5732 5730 5728 5726 5723 5721 5719 5716 5714 5711 5709 5707 5704 5701 5698 5695 5692 5689 5685 5682 5679 5675 5671 5667 5663 5659 5655 5651 5647 5642 5638 5634 5630 5626 5621 5616 5611 5606 5601 5596 5591 5586 5581 5576 5573 5570 5568 5565 5564 5564 5567 5568 5570 5574 5579 5582 5583 5585 5590 5595 5600 5603 5605 5609 5613 5617
5750 5749 5748 5748 5747 5746 5745 5745 5744 5743 5742 5741 5740 5738 5737 5735 5734 5732 5730 5728 5726 5724 5722 5719 5717 5715 5712 5710 5708 5705 5703 5700 5697 5694 5691 5687 5684 5680 5676 5673 5669 5665 5661 5657 5653 5649 5644 5640 5635 5631 5626 5622 5617 5612 5607 5601 5595 5590 5583 5577 5572 5567 5562 5558 5554 5552 5550 5548 5548 5549 5552 5554 5557 5563 5569 5571 5573 5577 5583 5588 5592 5595 5599 5603 5608
5746 5746 5745 5744 5743 5742 5742 5741 5740 5739 5738 5737 5736 5735 5733 5731 5730 5728 5726 5724 5722 5720 5718 5715 5713 5711 5709 5706 5704 5701 5699 5696 5693 5690 5686 5683 5679 5675 5671 5667 5664 5660 5656 5651 5647 5643 5638 5634 5629 5624 5619 5614 5609 5603 5597 5591 5584 5578 5571 5564 5557 5552 5547 5543 5539 5535 5534 5533 5532 5532 5535 5538 5542 5547 5554 5558 5561 5565 5570 5576 5582 5585 5588 5594 5600
5743 5742 5741 5740 5740 5739 5738 5738 5737 5736 5735 5733 5732 5731 5729 5728 5726 5724 5722 5720 5718 5716 5714 5711 5709 5707 5705 5703 5701 5698 5695 5692 5689 5686 5682 5678 5675 5671 5667 5663 5659 5655 5651 5646 5642 5637 5633 5628 5623 5618 5613 5607 5602 5596 5589 5582 5574 5566 5559 5551 5545 5540 5535 5531 5527 5523 5520 5519 5518 5518 5519 5522 5526 5531 5538 5544 5549 5552 5557 5565 5571 5573 5578 5585 5592
5739 5738 5737 5737 5736 5736 5735 5734 5733 5732 5731 5730 5729 5727 5726 5724 5722 5720 5718 5716 5714 5712 5710 5708 5706 5704 5702 5699 5697 5694 5692 5689 5686 5682 5679 5675 5671 5667 5663 5659 5655 5651 5646 5642 5637 5632 5628 5623 5617 5612 5607 5601 5594 5587 5580 5572 5563 5555 5548 5541 5535 5530 5526 5522 5519 5515 5511 5509 5507 5506 5506 5508 5512 5517 5523 5530 5536 5540 5546 5554 5559 5563 5570 5578 5583
5735 5734 5734 5733 5733 5732 5732 5731 5730 5729 5728 5726 5725 5723 5722 5720 5719 5717 5715 5713 5710 5708 5707 5705 5703 5701 5698 5696 5693 5691 5688 5685 5682 5679 5675 5671 5667 5663 5659 5655 5651 5647 5642 5638 5633 5628 5623 5618 5612 5606 5601 5594 5587 5579 5571 5562 5554 5545 5538 5532 5527 5523 5519 5516 5512 5509 5505 5502 5500 5498 5497 5497 5500 5505 5511 5517 5524 5529 5535 5543 5549 5554 5561 5568 5573
5731 5730 5730 5730 5729 5729 5728 5728 5727 5725 5724 5723 5721 5720 5718 5717 5715 5713 5711 5709 5707 5705 5703 5702 5699 5697 5695 5692 5690 5687 5685 5682 5679 5675 5671 5667 5663 5659 5656 5652 5647 5643 5638 5633 5628 5623 5618 5613 5607 5602 5595 5588 5581 5572 5563 5554 5545 5537 5531 5525 5521 5518 5515 5511 5507 5503 5500 5498 5495 5493 5491 5490 5492 5496 5501 5506 5513 5519 5525 5532 5539 5546 5552 5559 5564
5727 5727 5727 5727 5726 5726 5725 5724 5723 5722 5721 5719 5718 5716 5715 5713 5712 5710 5708 5706 5704 5702 5700 5698 5696 5694 5691 5689 5686 5684 5681 5678 5675 5671 5668 5664 5660 5656 5652 5648 5644 5639 5634 5630 5624 5619 5614 5609 5603 5597 5590 5583 5575 5566 5557 5548 5540 5532 5526 5521 5517 5514 5511 5508 5504 5500 5497 5494 5492 5490 5488 5487 5487 5489 5493 5498 5504 5510 5517 5523 5531 5538 5544 5550 5556
5723 5723 5723 5723 5723 5722 5721 5721 5719 5718 5717 5716 5714 5713 5711 5710 5708 5706 5705 5703 5701 5699 5697 5695 5693 5690 5688 5686 5683 5680 5677 5674 5671 5668 5664 5660 5657 5653 5649 5644 5640 5636 5631 5626 5621 5616 5611 5606 5600 5593 5586 5578 5570 5561 5553 5544 5536 5530 5524 5519 5515 5513 5510 5506 5502 5498 5495 5492 5490 5488 5486 5486 5485 5485 5488 5492 5497 5503 5509 5516 5524 5531 5537 5543 5549
5720 5720 5720 5720 5719 5719 5718 5717 5716 5715 5714 5712 5711 5710 5708 5706 5705 5703 5702 5700 5698 5696 5694 5692 5689 5687 5685 5682 5680 5677 5674 5671 5668 5664 5661 5657 5653 5649 5645 5641 5637 5633 5628 5623 5618 5613 5608 5602 5596 5589 5582 5575 5566 5558 5549 5541 5534 5528 5523 5519 5516 5512 5509 5505 5501 5497 5494 5491 5489 5487 5485 5485 5484 5484 5485 5488 5493 5498 5504 5510 5518 5525 5531 5537 5543
5716 5717 5716 5716 5716 5715 5714 5713 5712 5711 5710 5709 5708 5706 5704 5703 5702 5700 5699 5697 5695 5693 5691 5689 5686 5684 5682 5679 5676 5674 5671 5668 5664 5661 5657 5654 5650 5646 5642 5639 5634 5630 5625 5620 5615 5610 5605 5599 5593 5587 5580 5572 5564 5556 5547 5539 5532 5527 5523 5519 5516 5512 5508 5504 5500 5497 5494 5491 5488 5487 5485 5484 5484 5484 5485 5487 5490 5495 5500 5506 5513 5520 5525 5531 5538
5713 5713 5713 5712 5712 5711 5711 5710 5709 5708 5707 5705 5704 5703 5701 5700 5699 5697 5696 5694 5692 5690 5688 5685 5683 5681 5678 5676 5673 5670 5668 5664 5661 5658 5654 5651 5647 5644 5640 5636 5632 5627 5623 5618 5613 5608 5603 5597 5591 5585 5578 5570 5562 5554 5546 5539 5532 5527 5523 5519 5516 5512 5509 5505 5501 5496 5493 5490 5488 5487 5486 5485 5484 5485 5486 5487 5490 5494 5499 5504 5510 5516 5521 5527 5533
5709 5709 5709 5709 5708 5708 5707 5706 5705 5704 5703 5702 5701 5700 5698 5697 5696 5694 5692 5691 5689 5687 5685 5682 5680 5678 5676 5673 5670 5668 5665 5662 5659 5655 5652 5649 5646 5642 5639 5634 5630 5626 5621 5617 5612 5607 5601 5595 5589 5583 5576 5569 5561 5553 5546 5538 5532 5527 5523 5519 5516 5513 5509 5505 5501 5497 5493 5491 5489 5488 5487 5486 5486 5486 5487 5488 5490 5493 5498 5503 5508 5513 5519 5524 5529
5705 5705 5705 5705 5704 5704 5703 5702 5702 5701 5700 5698 5697 5696 5695 5694 5692 5691 5689 5687 5686 5684 5682 5680 5678 5675 5673 5671 5668 5665 5662 5660 5657 5654 5650 5647 5644 5641 5637 5633 5629 5625 5620 5615 5610 5605 5599 5593 5587 5581 5574 5568 5561 5553 5545 5538 5532 5526 5523 5519 5516 5513 5509 5505 5502 5498 5494 5492 5490 5489 5488 5488 5488 5488 5489 5490 5491 5493 5497 5501 5506 5511 5517 5522 5527
5702 5701 5701 5701 5700 5700 5699 5699 5698 5697 5696 5695 5694 5693 5692 5691 5689 5688 5686 5684 5683 5681 5679 5677 5675 5673 5671 5668 5666 5663 5661 5658 5655 5652 5649 5646 5643 5639 5636 5632 5628 5623 5619 5614 5608 5602 5597 5591 5586 5580 5574 5568 5562 5554 5547 5539 5533 5527 5523 5519 5517 5514 5511 5507 5504 5500 5497 5494 5492 5491 5490 5489 5489 5489 5490 5491 5493 5494 5497 5501 5505 5510 5515 5520 5525
5697 5697 5697 5697 5696 5696 5696 5695 5694 5694 5693 5692 5691 5690 5689 5688 5686 5685 5683 5682 5680 5678 5677 5675 5673 5671 5669 5666 5664 5661 5659 5656 5653 5650 5648 5644 5641 5638 5634 5630 5626 5622 5617 5612 5606 5601 5596 5591 5586 5581 5576 5570 5563 5557 5550 5542 5535 5529 5524 5520 5517 5515 5512 5508 5505 5502 5499 5496 5495 5493 5492 5491 5490 5490 5491 5492 5493 5495 5497 5500 5504 5508 5512 5517 5520
5694 5694 5694 5693 5693 5693 5692 5692 5691 5691 5690 5689 5688 5687 5686 5685 5683 5682 5680 5679 5678 5676 5674 5673 5671 5669 5666 5664 5662 5659 5657 5654 5651 5648 5645 5642 5639 5635 5632 5628 5624 5619 5615 5610 5605 5600 5595 5590 5586 5582 5577 5571 5565 5558 5552 5544 5537 5531 5525 5521 5517 5515 5512 5510 5506 5503 5500 5497 5496 5494 5493 5492 5491 5491 5492 5493 5494 5496 5497 5500 5504 5507 5510 5513 5516
5690 5690 5690 5690 5690 5690 5689 5689 5688 5687 5687 5686 5685 5684 5683 5682 5681 5679 5678 5677 5676 5674 5672 5671 5669 5667 5665 5662 5660 5657 5655 5652 5649 5646 5643 5640 5637 5633 5630 5626 5622 5618 5613 5609 5604 5600 5595 5591 5586 5582 5577 5571 5566 5559 5553 5546 5540 5533 5527 5522 5518 5515 5513 5511 5508 5505 5502 5499 5497 5495 5494 5493 5492 5492 5493 5494 5495 5496 5497 5499 5502 5505 5508 5511 5514
5687 5687 5687 5687 5687 5686 5686 5686 5685 5685 5684 5683 5682 5681 5680 5679 5678 5677 5676 5675 5673 5672 5671 5669 5667 5665 5663 5660 5658 5655 5653 5650 5647 5644 5641 5638 5635 5632 5628 5625 5621 5616 5612 5608 5604 5599 5595 5590 5586 5582 5577 5572 5566 5560 5554 5548 5542 5536 5529 5524 5519 5516 5513 5511 5508 5506 5504 5501 5498 5496 5494 5493 5493 5493 5494 5494 5495 5496 5497 5499 5501 5503 5507 5510 5513
5683 5683 5684 5684 5683 5683 5683 5683 5682 5682 5681 5680 5679 5678 5677 5676 5675 5674 5674 5673 5672 5670 5669 5667 5665 5663 5661 5659 5656 5654 5651 5648 5645 5642 5639 5636 5633 5630 5627 5623 5619 5615 5612 5608 5604 5599 5595 5591 5586 5582 5577 5572 5567 5562 5556 5550 5544 5538 5532 5527 5521 5517 5514 5512 5509 5507 5505 5503 5501 5498 5497 5495 5494 5494 5494 5495 5496 5496 5497 5499 5500 5503 5506 5508 5511
5680 5680 5680 5680 5680 5680 5680 5680 5680 5679 5678 5677 5677 5676 5675 5674 5673 5672 5671 5671 5670 5668 5667 5665 5663 5661 5659 5657 5654 5652 5649 5647 5644 5641 5638 5635 5632 5629 5626 5622 5618 5615 5611 5607 5603 5599 5595 5591 5587 5582 5578 5573 5568 5563 5558 5553 5547 5542 5536 5530 5525 5520 5516 5513 5511 5509 5507 5505 5503 5501 5499 5498 5496 5495 5495 5496 5497 5497 5497 5498 5500 5502 5505 5507 5510
5677 5677 5677 5677 5677 5677 5677 5677 5677 5676 5675 5675 5674 5673 5672 5672 5671 5670 5670 5669 5668 5666 5665 5664 5662 5660 5658 5655 5653 5651 5648 5645 5642 5640 5637 5634 5631 5628 5625 5621 5618 5614 5611 5607 5603 5599 5595 5591 5587 5583 5578 5574 5569 5564 5560 5555 5550 5545 5539 5534 5529 5524 5520 5516 5513 5510 5509 5507 5505 5503 5501 5500 5499 5497 5497 5497 5497 5497 5498 5498 5500 5502 5504 5506 5508
5674 5674 5674 5674 5675 5675 5675 5674 5674 5674 5673 5672 5671 5671 5670 5670 5669 5668 5668 5667 5666 5665 5663 5662 5660 5658 5656 5654 5652 5649 5647 5644 5641 5639 5636 5633 5630 5627 5624 5621 5618 5614 5611 5607 5603 5599 5596 5592 5587 5583 5579 5574 5570 5566 5561 5556 5552 5547 5542 5537 5533 5528 5524 5519 5515 5512 5510 5508 5506 5505 5503 5502 5501 5500 5499 5498 5498 5498 5498 5498 5499 5501 5503 5505 5507
5670 5670 5671 5671 5672 5672 5672 5672 5671 5671 5670 5670 5669 5669 5668 5668 5667 5667 5666 5665 5664 5663 5661 5660 5658 5657 5655 5653 5650 5648 5646 5643 5640 5638 5635 5632 5630 5627 5624 5621 5617 5614 5610 5607 5603 5600 5596 5592 5588 5584 5580 5576 5571 5567 5563 5558 5554 5549 5545 5540 5536 5531 5527 5523 5519 5515 5512 5510 5508 5507 5505 5504 5502 5501 5500 5499 5499 5499 5498 5499 5500 5501 5502 5504 5505
5667 5668 5668 5669 5669 5669 5669 5669 5669 5668 5668 5668 5667 5667 5666 5666 5666 5665 5664 5663 5662 5661 5660 5658 5657 5655 5653 5651 5649 5647 5645 5642 5640 5637 5634 5632 5629 5626 5623 5620 5616 5613 5610 5607 5603 5600 5596 5592 5589 5585 5581 5577 5573 5568 5564 5560 5556 5552 5547 5543 5539 5535 5531 5526 5523 5519 5515 5512 5510 5508 5506 5505 5504 5502 5501 5500 5500 5499 5499 5499 5500 5501 5502 5503 5504
5664 5665 5666 5666 5667 5667 5667 5667 5666 5666 5666 5665 5665 5665 5664 5664 5664 5663 5662 5662 5661 5659 5658 5656 5655 5653 5651 5650 5648 5645 5643 5641 5639 5636 5633 5630 5628 5625 5622 5619 5616 5613 5610 5606 5603 5600 5596 5593 5589 5585 5581 5578 5574 5570 5566 5562 5558 5554 5550 5546 5542 5538 5534 5531 5527 5523 5519 5516 5513 5510 5508 5506 5505 5503 5502 5501 5501 5500 5500 5500 5500 5500 5501 5502 5503
5662 5662 5663 5664 5664 5664 5664 5664 5664 5663 5663 5663 5663 5663 5663 5662 5662 5661 5661 5660 5659 5658 5656 5655 5653 5652 5650 5648 5646 5644 5642 5640 5637 5635 5632 5629 5627 5624 5621 5618 5615 5613 5610 5607 5603 5600 5597 5593 5590 5586 5582 5579 5575 5571 5567 5563 5559 5556 5552 5548 5544 5541 5537 5534 5530 5526 5523 5520 5516 5513 5510 5508 5506 5504 5503 5502 5502 5501 5500 5500 5500 5500 5501 5501 5502
5659 5660 5660 5661 5662 5662 5662 5662 5661 5661 5661 5661 5661 5661 5661 5661 5660 5660 5659 5658 5657 5656 5655 5653 5652 5650 5648 5646 5645 5643 5640 5638 5636 5634 5631 5629 5626 5623 5621 5618 5615 5612 5609 5606 5603 5600 5597 5594 5590 5587 5583 5580 5576 5572 5569 5565 5561 5558 5554 5550 5547 5543 5540 5536 5533 5529 5526 5523 5520 5517 5514 5511 5509 5506 5505 5503 5502 5502 5501 5501 5501 5500 5500 5501 5501
5656 5657 5658 5659 5659 5659 5659 5659 5659 5659 5659 5659 5659 5659 5659 5658 5658 5657 5657 5656 5655 5654 5653 5651 5650 5648 5647 5645 5643 5641 5639 5637 5635 5633 5630 5628 5625 5623 5620 5617 5615 5612 5609 5606 5603 5600 5597 5594 5590 5587 5584 5581 5577 5574 5570 5566 5563 5559 5556 5552 5549 5545 5542 5539 5535 5532 5529 5526 5523 5520 5518 5515 5512 5509 5507 5505 5504 5503 5502 5502 5501 5501 5501 5501 5501
5654 5655 5655 5656 5657 5657 5657 5657 5657 5657 5657 5657 5657 5657 5657 5656 5656 5655 5654 5654 5653 5652 5651 5649 5648 5647 5645 5643 5642 5640 5638 5636 5634 5631 5629 5627 5624 5622 5619 5617 5614 5611 5609 5606 5603 5600 5597 5594 5591 5588 5584 5581 5578 5575 5572 5568 5565 5561 5558 5554 5551 5548 5545 5541 5538 5535 5532 5529 5526 5524 5521 5518 5515 5513 5511 5508 5507 5505 5503 5503 5502 5502 5501 5501 5501
5652 5652 5653 5654 5654 5654 5655 5655 5655 5655 5655 5655 5655 5655 5655 5654 5654 5653 5652 5651 5651 5650 5649 5647 5646 5645 5643 5642 5640 5638 5636 5634 5632 5630 5628 5626 5623 5621 5618 5616 5613 5610 5608 5605 5602 5600 5597 5594 5591 5587 5584 5581 5579 5576 5573 5569 5566 5563 5560 5556 5553 5550 5547 5544 5541 5538 5535 5532 5529 5527 5524 5521 5519 5516 5514 5512 5510 5508 5506 5504 5503 5502 5502 5501 5501
5649 5650 5651 5651 5652 5652 5652 5652 5652 5653 5653 5653 5653 5652 5652 5652 5651 5651 5650 5649 5648 5647 5646 5645 5644 5642 5641 5639 5638 5636 5634 5632 5630 5628 5626 5624 5622 5619 5617 5614 5612 5609 5607 5604 5602 5599 5596 5593 5590 5587 5584 5581 5579 5576 5573 5570 5567 5564 5561 5558 5555 5552 5549 5546 5543 5540 5537 5534 5531 5529 5526 5524 5522 5519 5517 5515 5513 5511 5509 5507 5505 5504 5503 5502 5502
5646 5647 5648 5649 5649 5649 5650 5650 5650 5650 5650 5650 5650 5650 5650 5649 5649 5648 5647 5647 5646 5645 5644 5642 5641 5640 5638 5637 5635 5634 5632 5630 5628 5626 5624 5622 5620 5618 5615 5613 5611 5608 5606 5603 5601 5598 5595 5593 5590 5587 5584 5581 5579 5576 5573 5571 5568 5565 5562 5559 5556 5553 5550 5548 5545 5542 5539 5536 5534 5531 5528 5526 5524 5521 5519 5517 5515 5513 5512 5510 5508 5507 5505 5504 5503
5644 5645 5645 5646 5646 5647 5647 5647 5647 5648 5648 5648 5647 5647 5647 5646 5646 5645 5645 5644 5643 5642 5641 5639 5638 5637 5635 5634 5632 5631 5629 5627 5625 5624 5622 5620 5618 5616 5613 5611 5609 5607 5604 5602 5599 5597 5594 5592 5589 5586 5584 5581 5578 5576 5573 5570 5568 5565 5563 5560 5557 5554 5551 5549 5546 5544 5541 5538 5535 5533 5530 5528 5525 5523 5521 5519 5517 5516 5514 5512 5511 5509 5507 5506 5505
5641 5642 5642 5643 5644 5644 5644 5645 5645 5645 5645 5645 5644 5644 5644 5643 5643 5642 5641 5641 5640 5639 5638 5636 5635 5634 5632 5631 5629 5628 5626 5624 5623 5621 5619 5617 5615 5613 5611 5609 5607 5605 5602 5600 5598 5595 5593 5591 5588 5585 5583 5580 5578 5575 5573 5570 5568 5565 5563 5560 5557 5555 5552 5549 5547 5545 5542 5539 5537 5535 5532 5530 5527 5525 5523 5521 5519 5517 5516 5514 5512 5511 5509 5508 5507
5638 5639 5640 5640 5641 5641 5641 5642 5642 5642 5642 5642 5641 5641 5641 5640 5640 5639 5638 5637 5636 5635 5634 5633 5632 5630 5629 5627 5626 5624 5623 5621 5620 5618 5616 5614 5612 5610 5608 5606 5604 5602 5600 5598 5596 5594 5591 5589 5587 5584 5582 5579 5577 5574 5572 5569 5567 5565 5562 5560 5558 5555 5553 5550 5548 5545 5543 5540 5538 5536 5533 5531 5529 5526 5524 5522 5520 5518 5517 5515 5514 5512 5511 5509 5508
5635 5636 5637 5637 5638 5638 5638 5639 5639 5639 5639 5638 5638 5638 5638 5637 5636 5636 5635 5634 5633 5632 5631 5630 5628 5627 5625 5624 5622 5621 5619 5618 5616 5614 5613 5611 5609 5607 5606 5603 5601 5600 5598 5596 5593 5591 5589 5587 5585 5582 5580 5578 5575 5573 5570 5568 5566 5564 5561 5559 5557 5555 5553 5550 5548 5545 5543 5541 5539 5536 5534 5532 5530 5527 5525 5523 5521 5519 5517 5516 5514 5513 5511 5510 5508
5633 5633 5634 5635 5635 5635 5635 5635 5636 5635 5635 5635 5635 5634 5634 5633 5633 5632 5631 5630 5629 5628 5627 5626 5624 5623 5622 5620 5618 5617 5615 5614 5612 5611 5609 5607 5606 5604 5602 5600 5598 5596 5594 5592 5591 5589 5587 5585 5582 5580 5578 5576 5574 5571 5569 5567 5564 5562 5560 5558 5556 5554 5552 5550 5547 5545 5543 5541 5539 5536 5534 5532 5530 5528 5526 5524 5522 5520 5518 5516 5514 5513 5512 5510 5509